Theta_e
298 298 299 301 303 303 304 306 308 309 309 308 306 312 311 311 312 311 311 311 312 312 312 313 312 310 309 307 308 311 309 312 312 310 310 311 311 313 313 315 311 310 308 310
298 298 299 301 303 302 303 306 308 309 308 307 308 311 311 311 312 312 311 311 312 312 314 316 314 312 309 307 308 309 310 313 311 309 315 312 314 313 313 313 314 312 309 309
298 298 299 300 302 303 302 305 309 309 307 308 311 312 312 312 311 311 311 312 312 313 316 314 314 314 312 308 308 310 311 314 313 315 315 315 315 315 313 313 315 312 311 309
298 297 298 300 302 303 304 304 306 306 308 307 311 312 311 312 313 312 311 313 312 312 317 314 315 314 312 311 311 312 313 316 315 315 315 315 316 317 314 314 313 312 311 310
298 297 298 300 302 302 306 308 309 309 307 310 311 312 310 311 313 311 313 313 311 311 315 315 314 312 313 313 313 313 314 317 316 317 317 317 317 317 317 315 315 312 311 311
298 297 298 300 301 302 304 307 306 306 308 311 312 312 312 312 312 312 310 312 313 313 313 313 312 311 312 312 314 317 316 316 318 320 319 320 325 318 318 316 313 313 313 312
298 297 297 299 301 302 303 305 305 308 314 311 312 312 311 313 313 313 313 312 313 313 312 313 312 313 313 313 314 314 316 317 317 320 322 327 321 319 317 316 315 313 312 312
298 297 297 299 301 302 302 304 307 311 314 312 312 313 312 313 313 315 314 314 313 312 314 317 318 315 313 314 313 313 313 318 323 325 324 320 317 319 318 316 318 315 316 314
298 298 297 298 301 302 302 304 306 310 312 313 312 312 314 315 315 314 314 313 312 313 314 316 318 314 313 318 318 313 314 316 322 322 325 325 318 312 315 316 325 318 316 316
298 298 296 298 301 301 302 304 309 309 310 311 312 314 315 313 313 313 312 313 314 313 315 319 318 315 316 320 318 323 321 322 323 323 323 319 315 313 313 319 315 314 316 316
298 297 296 297 300 301 302 303 308 310 309 310 312 311 312 312 312 313 311 313 314 314 317 319 316 312 315 316 315 319 320 321 320 319 321 318 312 311 315 311 311 312 311 310
297 296 298 298 300 301 301 305 309 311 310 311 311 311 311 311 310 312 311 313 314 316 316 315 316 313 312 314 317 312 318 316 318 317 317 313 311 312 312 310 310 309 308 305
295 297 298 299 299 300 301 303 306 310 310 310 310 310 311 311 311 311 313 312 312 314 312 315 315 318 310 315 315 315 314 312 317 317 315 313 311 310 307 307 306 304 303 302
295 297 298 299 299 300 301 301 305 310 308 311 310 310 310 310 311 311 311 311 311 311 313 316 317 315 309 313 313 314 313 313 315 315 313 311 311 309 305 304 303 303 301 300
295 296 297 298 299 299 300 303 307 310 311 315 313 310 309 310 310 310 311 310 310 313 317 318 318 315 312 309 309 311 309 315 316 317 315 313 310 306 304 304 303 301 301 299
295 295 296 297 298 299 300 310 310 310 310 312 313 311 310 308 308 308 309 310 311 313 317 318 316 311 315 316 319 315 309 308 311 315 309 307 306 305 305 303 302 301 299 298
295 296 297 297 298 299 301 307 306 308 310 312 311 313 310 308 308 308 309 309 311 313 316 317 316 314 314 317 316 314 310 307 308 307 307 308 308 307 303 302 301 299 297 296
295 297 297 298 299 300 302 307 308 308 309 310 310 311 311 309 313 313 309 312 312 313 315 313 315 312 312 317 314 312 308 305 305 305 305 307 304 302 301 300 300 298 297 295
297 298 299 299 301 303 308 309 309 309 309 311 309 311 313 308 312 311 311 311 315 309 313 314 313 315 316 315 312 310 307 308 305 302 302 303 303 302 300 299 299 298 296 294
298 300 302 304 305 306 309 309 309 306 306 308 312 308 313 309 311 310 312 308 313 313 313 308 312 315 309 309 309 307 305 303 302 304 302 301 301 301 300 300 298 297 295 293
297 297 300 298 304 307 307 308 308 309 309 308 306 308 311 306 312 312 307 308 307 313 307 313 312 311 305 301 303 303 302 301 303 304 302 303 303 300 298 297 296 295 294 293
297 297 296 298 303 305 308 308 306 309 311 308 311 309 307 306 306 311 308 310 307 310 302 310 310 305 300 300 302 301 300 301 302 301 300 299 299 298 297 296 294 292 291 290
297 297 296 300 302 307 310 310 310 310 304 304 305 307 306 306 305 305 307 311 312 301 306 308 303 299 298 297 298 298 298 298 297 296 297 296 296 296 296 293 292 291 290 288
298 299 303 303 306 307 306 305 304 299 300 303 305 304 306 305 307 305 311 305 302 302 305 302 296 296 297 296 296 298 297 295 295 295 295 294 294 292 292 292 291 290 287 286
299 298 303 305 300 298 297 297 299 299 301 301 303 303 304 304 305 302 302 304 305 304 304 298 290 288 289 295 295 294 294 293 293 293 293 292 292 291 290 289 289 287 286 285
296 298 300 298 299 300 299 299 300 298 301 299 301 304 305 307 301 301 299 300 303 305 295 288 282 292 292 292 292 292 292 292 293 293 293 292 291 290 287 287 287 286 285 284
297 296 293 295 295 297 297 298 301 300 301 306 303 306 309 295 294 296 296 300 301 290 289 286 284 286 291 290 291 291 292 292 292 292 291 289 288 287 287 284 282 283 283 283
Wind_Speed
29 29 31 34 35 35 3 0 2 13 39 6 3 4 7 5 5 2 3 3 4 5 6 7 8 8 6 8 8 10 9 3 6 11 12 14 15 15 19 5 5 4 3 14
28 26 30 33 34 27 6 3 2 19 26 5 5 6 4 3 4 3 3 3 3 3 6 3 8 4 6 9 11 12 10 4 5 7 1 5 7 12 14 16 3 14 6 11
26 25 28 31 35 22 11 1 1 4 2 3 7 7 5 5 3 4 4 3 4 3 5 8 3 5 3 8 11 10 12 5 8 11 19 11 7 13 17 16 7 13 18 19
26 25 27 30 33 27 14 2 1 3 6 2 7 4 6 5 5 2 5 5 9 8 4 5 7 11 9 6 7 8 7 7 9 21 26 27 24 12 18 19 26 10 17 18
23 24 26 29 32 33 1 1 2 2 6 8 11 5 6 13 4 8 6 7 6 9 6 6 4 4 4 5 4 8 6 4 4 19 20 19 19 16 17 22 20 22 19 18
22 23 24 27 28 26 4 5 4 1 10 6 6 6 7 7 7 6 5 9 9 10 14 15 15 9 5 6 3 5 3 2 3 11 10 11 5 8 15 14 14 18 15 19
21 23 24 25 27 25 15 7 1 2 5 10 6 9 8 7 10 7 4 10 9 3 1 6 9 12 13 11 13 10 6 3 3 6 7 5 4 5 13 17 12 16 12 14
20 22 23 24 27 26 23 10 4 2 3 6 11 8 11 6 6 9 8 6 4 5 3 3 3 1 4 8 12 12 15 5 4 4 4 6 5 2 4 5 6 16 17 17
22 21 22 24 28 26 27 19 9 3 3 6 4 7 6 4 4 3 4 1 5 5 2 3 3 3 3 3 2 3 8 11 3 4 4 3 3 4 5 3 5 9 15 15
21 22 24 22 27 27 28 10 10 4 3 1 4 4 5 3 3 1 1 2 4 10 6 3 3 4 2 3 2 3 3 3 6 2 3 6 2 3 6 4 3 2 10 13
19 21 22 21 26 27 27 16 7 3 2 1 1 4 4 2 3 3 2 2 4 4 5 4 3 4 6 2 3 3 5 4 3 3 3 3 3 2 2 1 3 2 1 4
19 20 21 21 23 24 24 6 6 4 1 2 1 3 3 5 6 4 4 2 1 3 3 3 3 3 2 3 2 1 3 5 3 6 5 3 2 3 3 4 3 1 3 3
20 21 22 21 22 21 20 12 10 1 1 2 1 4 4 10 10 10 3 2 3 2 1 1 1 4 3 4 4 3 3 3 2 3 2 4 2 1 3 3 3 4 5 9
21 23 23 23 23 23 20 12 11 4 1 1 2 1 1 4 13 17 13 2 0 3 2 2 2 2 3 2 2 3 3 4 3 5 7 5 4 2 3 4 7 9 9 8
22 23 23 24 24 24 23 16 8 4 1 1 2 1 1 3 8 9 6 2 2 2 2 2 3 1 2 1 1 3 4 6 4 5 4 3 1 5 6 6 6 7 12 11
24 25 25 23 23 22 12 2 7 10 1 1 2 1 2 2 6 5 3 3 3 2 1 2 2 1 2 2 2 5 4 3 3 2 3 3 6 6 3 7 7 8 9 10
26 27 24 22 21 18 5 5 2 5 2 1 2 2 1 4 3 2 2 2 2 2 1 2 1 1 2 2 4 4 4 5 4 5 7 4 3 5 7 11 12 13 12 12
30 28 27 24 19 13 9 6 6 11 2 0 1 2 2 1 1 1 2 2 1 2 1 1 1 1 1 4 8 5 2 5 5 3 2 2 10 11 9 10 14 13 11 11
32 25 12 3 4 3 3 4 11 6 2 1 1 2 2 2 0 0 1 0 1 1 1 0 1 2 4 7 6 5 6 5 7 5 7 7 10 12 9 9 11 15 10 10
16 4 2 2 2 7 15 5 1 2 2 0 2 1 2 1 0 0 0 2 1 1 1 2 2 4 5 4 2 1 6 9 10 10 5 6 7 10 11 6 7 11 10 10
8 4 3 10 6 2 1 1 1 2 2 3 3 3 3 1 1 1 1 1 0 1 2 1 2 4 3 4 2 2 4 8 3 2 5 5 10 13 13 10 10 11 12 12
8 10 8 6 2 1 3 3 0 3 3 2 3 3 2 1 1 2 1 0 1 3 3 1 3 3 2 3 4 4 3 6 4 3 8 10 12 11 11 12 11 12 19 21
4 1 2 1 1 2 5 5 2 2 2 2 1 1 2 1 1 2 1 0 2 1 0 3 4 3 2 1 2 4 5 6 7 8 8 12 13 16 17 13 18 21 19 18
2 2 3 2 2 2 1 1 2 1 2 2 3 2 2 1 2 1 2 1 1 1 2 5 3 3 1 2 2 4 4 7 8 9 11 13 14 13 19 20 21 23 20 21
2 1 2 2 2 1 1 2 1 1 2 1 2 2 2 1 2 1 2 0 3 5 4 3 3 3 1 2 3 6 6 6 8 9 11 12 15 15 16 19 24 26 25 25
0 1 2 2 1 1 1 1 2 1 1 1 2 2 2 3 3 3 6 5 5 3 3 2 1 2 2 3 5 6 6 8 9 9 13 17 16 15 18 22 23 23 24 24
2 1 1 1 2 2 2 1 2 1 1 2 2 5 6 2 2 3 4 5 3 2 2 1 2 2 4 5 6 7 8 9 10 14 17 19 23 25 24 14 16 24 26 27
Wind_Direction
328 332 330 335 345 352 17 54 206 162 147 141 198 172 150 115 141 91 112 117 100 158 176 184 207 221 237 169 142 180 210 233 242 236 233 213 222 227 218 237 208 223 206 261
329 332 330 336 342 357 341 330 288 171 169 156 163 160 116 119 126 151 137 102 90 171 177 205 216 202 237 174 168 173 168 227 295 299 206 185 222 217 219 223 285 227 215 257
331 334 331 335 338 346 340 239 251 70 89 321 133 148 144 107 118 133 113 121 150 162 207 212 271 230 264 197 203 178 165 210 223 260 272 270 231 218 211 211 231 232 228 259
335 336 333 335 340 341 321 142 226 232 173 218 154 158 128 124 156 91 150 196 209 222 236 224 232 238 260 257 225 190 188 250 230 253 264 270 260 234 206 206 230 223 250 249
337 337 332 337 347 352 49 232 234 119 153 149 171 165 184 184 145 162 206 224 179 220 224 223 183 249 200 251 97 161 214 280 273 278 271 278 278 224 206 211 226 237 253 271
337 338 335 339 348 356 319 327 156 187 157 157 162 179 166 184 162 210 188 202 230 223 229 233 246 257 264 245 277 201 204 251 289 284 328 306 288 208 203 211 217 219 224 248
336 341 335 339 343 345 328 298 285 320 162 176 192 149 192 184 210 220 205 206 199 200 156 268 239 243 252 260 250 224 232 211 237 288 313 347 323 342 209 211 229 224 234 246
336 341 336 334 342 340 334 292 243 250 129 175 170 162 182 193 198 227 243 189 170 99 260 253 239 212 259 236 222 210 208 225 273 286 301 290 312 336 119 176 263 228 238 248
335 337 341 338 336 340 338 307 229 259 132 197 141 174 161 174 182 188 228 187 177 156 212 198 201 213 255 275 211 125 171 214 245 314 308 323 313 353 140 187 330 190 213 247
335 336 338 331 338 343 340 289 247 247 114 226 135 157 176 134 125 172 260 235 206 182 182 217 185 220 263 240 222 173 162 189 225 272 287 290 244 21 145 48 277 316 184 226
334 336 333 331 339 342 346 295 302 5 77 272 46 157 137 120 144 168 182 265 214 162 176 199 203 193 213 184 270 199 180 169 205 188 244 289 20 92 246 239 291 293 266 188
338 335 332 331 339 341 347 312 327 348 95 171 251 242 190 197 164 149 169 250 253 204 172 204 160 223 181 175 264 86 218 187 186 189 219 255 263 252 282 293 266 236 198 134
333 331 331 332 336 336 340 314 303 268 33 314 31 240 232 209 204 214 191 207 240 274 123 244 242 234 140 167 235 205 246 177 218 5 255 254 291 139 356 354 63 34 90 124
328 328 332 332 332 334 333 317 289 282 124 175 266 332 253 257 221 213 209 175 282 311 248 228 212 224 166 210 221 207 202 140 197 265 285 291 269 101 132 72 77 82 75 91
324 323 323 325 332 333 325 301 262 223 266 356 317 252 222 212 192 197 204 195 220 230 223 214 216 184 135 226 51 248 191 189 172 217 221 158 346 119 133 112 104 102 108 93
324 320 316 316 324 330 328 239 222 218 316 355 324 265 208 147 181 185 196 209 237 252 249 227 225 232 162 183 248 250 204 223 215 256 99 84 107 105 90 111 108 93 95 104
318 313 309 307 308 307 255 296 280 177 209 238 338 293 317 161 149 188 181 197 239 245 237 243 257 164 118 226 225 234 198 255 198 137 126 74 174 136 111 113 107 97 86 89
315 312 303 293 291 283 274 279 223 173 191 115 226 270 300 130 212 208 177 226 245 220 295 273 237 51 240 255 238 245 127 108 89 26 341 116 119 107 110 117 119 105 104 105
319 312 296 232 192 225 249 145 152 165 200 222 171 179 236 17 281 126 210 225 249 349 259 203 276 177 224 231 236 226 182 181 151 82 82 100 114 120 119 130 115 116 116 111
337 336 249 197 175 315 130 134 109 25 294 261 237 158 199 138 80 17 329 22 6 293 335 319 225 253 261 256 233 326 160 140 147 124 108 115 120 142 137 134 116 123 124 117
3 353 331 310 338 200 65 104 154 172 222 205 230 195 152 246 140 175 39 149 337 294 278 288 261 265 259 345 297 1 148 154 181 4 124 136 143 144 132 118 110 115 118 117
303 301 303 300 318 70 154 177 172 217 222 209 168 205 152 146 209 112 16 216 108 250 313 294 259 257 311 353 13 9 128 140 88 97 114 115 119 125 120 119 114 106 114 118
287 165 284 256 266 181 193 172 200 219 217 207 125 80 119 107 50 63 95 155 239 81 243 243 236 270 280 338 11 56 86 98 95 89 92 106 105 111 119 112 112 115 109 116
220 218 262 218 183 256 167 251 180 338 295 172 111 100 114 103 69 138 161 75 28 357 285 242 254 261 85 71 68 109 100 104 104 106 111 111 109 102 103 111 120 117 113 117
250 187 254 242 346 265 231 232 267 254 269 158 92 65 102 70 115 68 112 304 254 218 232 237 249 256 251 106 94 116 113 111 108 115 112 113 114 110 104 109 116 119 121 120
225 252 280 314 303 308 351 330 270 224 252 359 48 116 119 190 148 133 212 151 226 247 221 249 286 203 143 125 120 114 107 109 114 117 119 120 118 115 111 109 113 118 123 120
314 312 342 315 282 270 285 270 260 301 122 217 143 173 211 77 76 262 194 210 225 227 278 280 241 205 162 132 114 109 113 116 120 120 117 115 118 118 114 102 100 114 120 127